sat.trackr.live / text

‹ back to catalog

SES-12

NORAD 43488 · 2018-049A

PAYLOAD ACTIVE UNKNOWN

§ Identity

Operator
Country
SES
Launch date
2018-06-04
Launch site
AFETR
Launch vehicle
Mass (kg)
RCS (m²)

Purposes: comms

External: N2YO · Heavens-Above · Gunter

§ Orbital elements

Epoch: 2026-09-19T15:42:43.562304Z

Period
1,436.10 min
Inclination
0.0274°
Eccentricity
0.0001706
Mean motion
1.00271348 rev/d
Perigee alt
35,779.5 km
Apogee alt
35,793.9 km
Semi-major
42,164.9 km
B*
0.0000e+0
RAAN
48.3015°
Arg perigee
185.9364°
Mean anomaly
95.0149°
Rev number
3,036

§ Raw data

SES-121 43488U 18049A   26262.65467086 -.00000274  00000+0  00000+0 0  99912 43488   0.0274  48.3015 0001706 185.9364  95.0149  1.00271348 30369

JSON: /api/v1/satellites/43488 · /tle

For live sub-satellite position, see the globe view (requires WebGL).

§ Visibility from observer

Set your observer location to see the next 7 days of passes ≥ 10°. The values pass through the URL so the page stays shareable.

No JS? Fill the form by hand. The geolocation button needs JavaScript.